Time,TemperatureF,DewpointF,PressureIn,WindDirection,WindDirectionDegrees,WindSpeedMPH,WindSpeedGustMPH,Humidity,HourlyPrecipIn,Conditions,Clouds,dailyrainin,SoftwareType,DateUTC
2013-07-09 00:02:00,76.0,73.2,29.99,SW,231,2.0,7.0,91,0.00,,,0.00,WUHU216DAVISVP2,2013-07-09 04:02:00,
2013-07-09 00:07:00,75.9,73.1,29.99,SW,228,4.0,7.0,91,0.00,,,0.00,WUHU216DAVISVP2,2013-07-09 04:07:00,
2013-07-09 00:23:00,75.8,73.3,30.00,WSW,245,5.0,7.0,92,0.00,,,0.00,WUHU216DAVISVP2,2013-07-09 04:23:00,
2013-07-09 00:28:00,75.8,73.3,30.00,WSW,245,3.0,8.0,92,0.00,,,0.00,WUHU216DAVISVP2,2013-07-09 04:28:00,
2013-07-09 00:33:00,75.8,73.3,30.00,SW,228,5.0,8.0,92,0.00,,,0.00,WUHU216DAVISVP2,2013-07-09 04:33:00,
2013-07-09 00:45:00,75.7,73.2,30.00,SW,217,2.0,7.0,92,0.00,,,0.00,WUHU216DAVISVP2,2013-07-09 04:45:00,
2013-07-09 00:50:00,75.7,73.2,30.00,WSW,252,3.0,7.0,92,0.00,,,0.00,WUHU216DAVISVP2,2013-07-09 04:50:00,
2013-07-09 01:07:00,75.6,73.4,29.99,WSW,240,4.0,7.0,93,0.00,,,0.00,WUHU216DAVISVP2,2013-07-09 05:07:00,
2013-07-09 01:12:00,75.5,73.3,29.99,WSW,239,3.0,7.0,93,0.00,,,0.00,WUHU216DAVISVP2,2013-07-09 05:12:00,
2013-07-09 01:29:00,75.4,73.2,29.99,SW,221,4.0,7.0,93,0.00,,,0.00,WUHU216DAVISVP2,2013-07-09 05:29:00,
2013-07-09 01:34:00,75.4,73.2,29.99,SSW,210,2.0,7.0,93,0.00,,,0.00,WUHU216DAVISVP2,2013-07-09 05:34:00,
2013-07-09 01:51:00,75.5,73.3,29.98,SW,231,6.0,10.0,93,0.00,,,0.00,WUHU216DAVISVP2,2013-07-09 05:51:00,
2013-07-09 01:56:00,75.5,73.6,29.98,SW,217,3.0,9.0,94,0.00,,,0.00,WUHU216DAVISVP2,2013-07-09 05:56:00,
2013-07-09 02:01:00,75.5,73.6,29.98,SW,233,6.0,9.0,94,0.00,,,0.00,WUHU216DAVISVP2,2013-07-09 06:01:00,
2013-07-09 02:13:00,75.7,73.5,29.98,SW,233,4.0,10.0,93,0.00,,,0.00,WUHU216DAVISVP2,2013-07-09 06:13:00,
2013-07-09 02:18:00,75.8,73.6,29.98,SW,235,4.0,13.0,93,0.00,,,0.00,WUHU216DAVISVP2,2013-07-09 06:18:00,
2013-07-09 02:35:00,75.7,73.5,29.98,WSW,248,7.0,13.0,93,0.00,,,0.00,WUHU216DAVISVP2,2013-07-09 06:35:00,
2013-07-09 02:40:00,75.7,73.5,29.99,WSW,257,3.0,11.0,93,0.00,,,0.00,WUHU216DAVISVP2,2013-07-09 06:40:00,
2013-07-09 02:56:00,75.4,73.2,29.98,WSW,246,7.0,10.0,93,0.00,,,0.00,WUHU216DAVISVP2,2013-07-09 06:56:00,
2013-07-09 03:01:00,75.3,73.1,29.98,WSW,250,7.0,10.0,93,0.00,,,0.00,WUHU216DAVISVP2,2013-07-09 07:01:00,
2013-07-09 03:18:00,75.0,73.2,29.99,WSW,243,2.0,9.0,94,0.00,,,0.00,WUHU216DAVISVP2,2013-07-09 07:18:00,
2013-07-09 03:23:00,74.9,73.1,29.99,WSW,249,2.0,8.0,94,0.00,,,0.00,WUHU216DAVISVP2,2013-07-09 07:23:00,
2013-07-09 03:40:00,74.6,72.8,29.99,WSW,256,4.0,6.0,94,0.00,,,0.00,WUHU216DAVISVP2,2013-07-09 07:40:00,
2013-07-09 03:45:00,74.5,73.0,29.99,SW,219,4.0,8.0,95,0.00,,,0.00,WUHU216DAVISVP2,2013-07-09 07:45:00,
2013-07-09 03:52:00,74.4,72.9,29.99,SW,224,2.0,8.0,95,0.00,,,0.00,WUHU216DAVISVP2,2013-07-09 07:52:00,
2013-07-09 04:02:00,74.2,72.6,29.99,WSW,248,2.0,7.0,95,0.00,,,0.00,WUHU216DAVISVP2,2013-07-09 08:02:00,
2013-07-09 04:07:00,74.1,72.5,29.99,SSW,212,3.0,6.0,95,0.00,,,0.00,WUHU216DAVISVP2,2013-07-09 08:07:00,
2013-07-09 04:12:00,74.0,72.4,29.99,WSW,245,2.0,6.0,95,0.00,,,0.00,WUHU216DAVISVP2,2013-07-09 08:12:00,
2013-07-09 04:24:00,74.0,72.4,29.99,West,260,3.0,8.0,95,0.00,,,0.00,WUHU216DAVISVP2,2013-07-09 08:24:00,
2013-07-09 04:29:00,73.9,72.4,29.99,WSW,240,4.0,7.0,95,0.00,,,0.00,WUHU216DAVISVP2,2013-07-09 08:29:00,
2013-07-09 04:46:00,73.6,72.4,29.99,SW,225,2.0,5.0,96,0.00,,,0.00,WUHU216DAVISVP2,2013-07-09 08:46:00,
2013-07-09 04:51:00,73.6,72.4,29.99,WSW,246,2.0,5.0,96,0.00,,,0.00,WUHU216DAVISVP2,2013-07-09 08:51:00,
2013-07-09 04:56:00,73.5,72.3,29.99,SW,233,2.0,5.0,96,0.00,,,0.00,WUHU216DAVISVP2,2013-07-09 08:56:00,
2013-07-09 05:08:00,73.4,72.2,29.98,SW,228,6.0,6.0,96,0.00,,,0.00,WUHU216DAVISVP2,2013-07-09 09:08:00,
2013-07-09 05:13:00,73.4,72.2,29.99,WSW,248,4.0,6.0,96,0.00,,,0.00,WUHU216DAVISVP2,2013-07-09 09:13:00,
2013-07-09 05:30:00,73.4,72.2,29.99,WSW,238,4.0,8.0,96,0.00,,,0.00,WUHU216DAVISVP2,2013-07-09 09:30:00,
2013-07-09 05:35:00,73.3,72.1,29.99,SW,233,3.0,8.0,96,0.00,,,0.00,WUHU216DAVISVP2,2013-07-09 09:35:00,
2013-07-09 05:40:00,73.2,72.0,29.99,WSW,249,3.0,7.0,96,0.00,,,0.00,WUHU216DAVISVP2,2013-07-09 09:40:00,
2013-07-09 05:52:00,73.0,71.8,29.99,SW,228,2.0,7.0,96,0.00,,,0.00,WUHU216DAVISVP2,2013-07-09 09:52:00,
2013-07-09 05:57:00,72.9,71.7,29.99,SW,221,2.0,6.0,96,0.00,,,0.00,WUHU216DAVISVP2,2013-07-09 09:57:00,
2013-07-09 06:14:00,72.6,71.4,29.99,WSW,245,2.0,5.0,96,0.00,,,0.00,WUHU216DAVISVP2,2013-07-09 10:14:00,
2013-07-09 06:19:00,72.6,71.4,29.99,SW,233,2.0,5.0,96,0.00,,,0.00,WUHU216DAVISVP2,2013-07-09 10:19:00,
2013-07-09 06:35:00,72.4,71.5,29.99,SW,231,1.0,3.0,97,0.00,,,0.00,WUHU216DAVISVP2,2013-07-09 10:35:00,
2013-07-09 06:40:00,72.4,71.5,29.99,WSW,248,1.0,3.0,97,0.00,,,0.00,WUHU216DAVISVP2,2013-07-09 10:40:00,
2013-07-09 06:57:00,72.7,71.8,29.99,SW,226,3.0,3.0,97,0.00,,,0.00,WUHU216DAVISVP2,2013-07-09 10:57:00,
2013-07-09 07:02:00,72.9,72.0,29.99,SW,226,3.0,4.0,97,0.00,,,0.00,WUHU216DAVISVP2,2013-07-09 11:02:00,
2013-07-09 07:07:00,73.0,72.1,29.99,WSW,238,2.0,4.0,97,0.00,,,0.00,WUHU216DAVISVP2,2013-07-09 11:07:00,
2013-07-09 07:19:00,73.6,72.4,30.00,SW,228,2.0,4.0,96,0.00,,,0.00,WUHU216DAVISVP2,2013-07-09 11:19:00,
2013-07-09 07:24:00,73.8,72.6,30.00,SSW,203,2.0,5.0,96,0.00,,,0.00,WUHU216DAVISVP2,2013-07-09 11:24:00,
2013-07-09 07:29:00,74.0,72.8,30.00,WSW,257,2.0,5.0,96,0.00,,,0.00,WUHU216DAVISVP2,2013-07-09 11:29:00,
2013-07-09 07:41:00,74.4,72.8,30.00,SW,233,5.0,7.0,95,0.00,,,0.00,WUHU216DAVISVP2,2013-07-09 11:41:00,
2013-07-09 07:46:00,74.5,72.9,30.00,SW,224,3.0,7.0,95,0.00,,,0.00,WUHU216DAVISVP2,2013-07-09 11:46:00,
2013-07-09 07:51:00,74.7,73.1,30.00,WSW,240,4.0,7.0,95,0.00,,,0.00,WUHU216DAVISVP2,2013-07-09 11:51:00,
2013-07-09 08:03:00,75.0,73.4,30.00,SW,231,3.0,6.0,95,0.00,,,0.00,WUHU216DAVISVP2,2013-07-09 12:03:00,
2013-07-09 08:08:00,75.1,73.2,30.00,SSW,208,2.0,9.0,94,0.00,,,0.00,WUHU216DAVISVP2,2013-07-09 12:08:00,
2013-07-09 08:13:00,75.3,73.4,30.00,SW,219,3.0,9.0,94,0.00,,,0.00,WUHU216DAVISVP2,2013-07-09 12:13:00,
2013-07-09 08:25:00,76.1,73.9,30.00,SSW,210,2.0,7.0,93,0.00,,,0.00,WUHU216DAVISVP2,2013-07-09 12:25:00,
2013-07-09 08:30:00,76.5,74.3,30.00,SW,214,4.0,7.0,93,0.00,,,0.00,WUHU216DAVISVP2,2013-07-09 12:30:00,
2013-07-09 08:47:00,77.7,74.8,30.00,SW,214,6.0,8.0,91,0.00,,,0.00,WUHU216DAVISVP2,2013-07-09 12:47:00,
2013-07-09 08:52:00,77.9,74.7,30.00,SW,222,5.0,10.0,90,0.00,,,0.00,WUHU216DAVISVP2,2013-07-09 12:52:00,
2013-07-09 08:57:00,78.1,74.9,30.00,WSW,245,5.0,10.0,90,0.00,,,0.00,WUHU216DAVISVP2,2013-07-09 12:57:00,
2013-07-09 09:09:00,78.6,75.4,30.01,SW,228,7.0,10.0,90,0.00,,,0.00,WUHU216DAVISVP2,2013-07-09 13:09:00,
2013-07-09 09:14:00,78.8,75.3,30.01,WSW,240,3.0,11.0,89,0.00,,,0.00,WUHU216DAVISVP2,2013-07-09 13:14:00,
2013-07-09 09:19:00,78.6,75.1,30.00,West,260,4.0,11.0,89,0.00,,,0.00,WUHU216DAVISVP2,2013-07-09 13:19:00,
2013-07-09 09:31:00,79.3,75.4,30.01,West,264,6.0,8.0,88,0.00,,,0.00,WUHU216DAVISVP2,2013-07-09 13:31:00,
2013-07-09 09:36:00,79.5,75.6,30.01,WSW,240,3.0,8.0,88,0.00,,,0.00,WUHU216DAVISVP2,2013-07-09 13:36:00,
2013-07-09 09:41:00,79.9,76.0,30.00,SW,228,6.0,8.0,88,0.00,,,0.00,WUHU216DAVISVP2,2013-07-09 13:41:00,
2013-07-09 09:53:00,80.1,75.9,30.00,WSW,256,6.0,10.0,87,0.00,,,0.00,WUHU216DAVISVP2,2013-07-09 13:53:00,
2013-07-09 09:58:00,80.4,76.2,30.00,WSW,250,7.0,9.0,87,0.00,,,0.00,WUHU216DAVISVP2,2013-07-09 13:58:00,
2013-07-09 10:15:00,80.3,76.4,30.00,SW,228,5.0,9.0,88,0.00,,,0.00,WUHU216DAVISVP2,2013-07-09 14:15:00,
2013-07-09 10:20:00,80.3,76.1,30.00,West,263,3.0,9.0,87,0.00,,,0.00,WUHU216DAVISVP2,2013-07-09 14:20:00,
2013-07-09 10:25:00,80.7,76.2,30.00,WSW,246,5.0,9.0,86,0.00,,,0.00,WUHU216DAVISVP2,2013-07-09 14:25:00,
2013-07-09 10:36:00,81.5,76.9,30.00,SSW,210,9.0,9.0,86,0.00,,,0.00,WUHU216DAVISVP2,2013-07-09 14:36:00,
2013-07-09 10:42:00,81.7,76.8,30.00,SW,217,7.0,9.0,85,0.00,,,0.00,WUHU216DAVISVP2,2013-07-09 14:42:00,
2013-07-09 10:58:00,82.6,78.0,29.99,SSW,207,7.0,9.0,86,0.00,,,0.00,WUHU216DAVISVP2,2013-07-09 14:58:00,
2013-07-09 11:03:00,82.7,77.1,29.99,SW,226,3.0,9.0,83,0.00,,,0.00,WUHU216DAVISVP2,2013-07-09 15:03:00,
2013-07-09 11:08:00,82.8,77.5,29.99,SW,219,4.0,8.0,84,0.00,,,0.00,WUHU216DAVISVP2,2013-07-09 15:08:00,
2013-07-09 11:20:00,83.2,78.3,29.99,SSW,211,6.0,10.0,85,0.00,,,0.00,WUHU216DAVISVP2,2013-07-09 15:20:00,
2013-07-09 11:25:00,83.2,77.9,29.99,WSW,253,3.0,12.0,84,0.00,,,0.00,WUHU216DAVISVP2,2013-07-09 15:25:00,
2013-07-09 11:42:00,83.8,77.8,29.99,WSW,249,10.0,12.0,82,0.00,,,0.00,WUHU216DAVISVP2,2013-07-09 15:42:00,
2013-07-09 11:47:00,83.7,77.4,29.99,SSW,211,5.0,12.0,81,0.00,,,0.00,WUHU216DAVISVP2,2013-07-09 15:47:00,
2013-07-09 11:52:00,83.4,77.4,29.99,SW,219,9.0,12.0,82,0.00,,,0.00,WUHU216DAVISVP2,2013-07-09 15:52:00,
2013-07-09 12:04:00,83.0,77.0,30.00,WSW,241,6.0,12.0,82,0.00,,,0.00,WUHU216DAVISVP2,2013-07-09 16:04:00,
2013-07-09 12:09:00,83.3,77.0,30.00,SW,236,8.0,11.0,81,0.00,,,0.00,WUHU216DAVISVP2,2013-07-09 16:09:00,
2013-07-09 12:14:00,83.2,77.6,29.99,WSW,239,8.0,12.0,83,0.00,,,0.00,WUHU216DAVISVP2,2013-07-09 16:14:00,
2013-07-09 12:26:00,83.1,77.1,29.99,WSW,253,5.0,11.0,82,0.00,,,0.00,WUHU216DAVISVP2,2013-07-09 16:26:00,
2013-07-09 12:31:00,82.9,76.9,29.99,SW,231,5.0,12.0,82,0.00,,,0.00,WUHU216DAVISVP2,2013-07-09 16:31:00,
2013-07-09 12:48:00,83.4,77.4,29.99,SW,226,8.0,12.0,82,0.00,,,0.00,WUHU216DAVISVP2,2013-07-09 16:48:00,
2013-07-09 12:53:00,83.6,76.9,29.99,SW,229,4.0,11.0,80,0.00,,,0.00,WUHU216DAVISVP2,2013-07-09 16:53:00,
2013-07-09 12:58:00,83.6,76.9,29.99,SW,224,6.0,12.0,80,0.00,,,0.00,WUHU216DAVISVP2,2013-07-09 16:58:00,
2013-07-09 13:10:00,83.7,77.4,29.99,WSW,257,7.0,11.0,81,0.00,,,0.00,WUHU216DAVISVP2,2013-07-09 17:10:00,
2013-07-09 13:15:00,83.6,76.9,29.99,SW,222,6.0,11.0,80,0.00,,,0.00,WUHU216DAVISVP2,2013-07-09 17:15:00,
2013-07-09 13:20:00,83.6,77.3,29.99,SW,226,5.0,11.0,81,0.00,,,0.00,WUHU216DAVISVP2,2013-07-09 17:20:00,
2013-07-09 13:32:00,83.1,76.8,29.98,SSW,203,3.0,10.0,81,0.00,,,0.00,WUHU216DAVISVP2,2013-07-09 17:32:00,
2013-07-09 13:37:00,82.9,76.6,29.98,SW,228,3.0,10.0,81,0.00,,,0.00,WUHU216DAVISVP2,2013-07-09 17:37:00,
2013-07-09 13:54:00,83.2,77.6,29.98,SW,219,7.0,12.0,83,0.00,,,0.00,WUHU216DAVISVP2,2013-07-09 17:54:00,
2013-07-09 13:59:00,83.2,76.9,29.97,WSW,253,6.0,11.0,81,0.00,,,0.00,WUHU216DAVISVP2,2013-07-09 17:59:00,
2013-07-09 14:16:00,83.4,77.7,29.96,WSW,240,7.0,11.0,83,0.00,,,0.00,WUHU216DAVISVP2,2013-07-09 18:16:00,
2013-07-09 14:21:00,83.6,78.0,29.96,SSW,200,11.0,12.0,83,0.00,,,0.00,WUHU216DAVISVP2,2013-07-09 18:21:00,
2013-07-09 14:26:00,84.0,78.7,29.96,WSW,248,9.0,12.0,84,0.00,,,0.00,WUHU216DAVISVP2,2013-07-09 18:26:00,
2013-07-09 14:37:00,84.9,77.8,29.97,West,264,12.0,16.0,79,0.00,,,0.00,WUHU216DAVISVP2,2013-07-09 18:37:00,
2013-07-09 14:42:00,85.2,78.5,29.96,SSW,208,10.0,16.0,80,0.00,,,0.00,WUHU216DAVISVP2,2013-07-09 18:42:00,
2013-07-09 14:59:00,84.0,76.2,29.96,WSW,249,6.0,19.0,77,0.00,,,0.00,WUHU216DAVISVP2,2013-07-09 18:59:00,
2013-07-09 15:04:00,83.7,77.0,29.96,SW,222,8.0,14.0,80,0.00,,,0.00,WUHU216DAVISVP2,2013-07-09 19:04:00,
2013-07-09 15:21:00,82.8,76.5,29.96,WSW,249,2.0,11.0,81,0.00,,,0.00,WUHU216DAVISVP2,2013-07-09 19:21:00,
2013-07-09 15:26:00,82.7,76.7,29.95,WSW,239,4.0,10.0,82,0.00,,,0.00,WUHU216DAVISVP2,2013-07-09 19:26:00,
2013-07-09 15:31:00,82.5,76.9,29.95,WSW,253,3.0,10.0,83,0.00,,,0.00,WUHU216DAVISVP2,2013-07-09 19:31:00,
2013-07-09 15:43:00,82.1,76.9,29.95,SW,233,2.0,7.0,84,0.00,,,0.00,WUHU216DAVISVP2,2013-07-09 19:43:00,
2013-07-09 15:48:00,82.1,76.9,29.96,West,278,4.0,7.0,84,0.00,,,0.00,WUHU216DAVISVP2,2013-07-09 19:48:00,
2013-07-09 16:05:00,82.0,76.1,29.96,WNW,300,0.0,9.0,82,0.00,,,0.00,WUHU216DAVISVP2,2013-07-09 20:05:00,
2013-07-09 16:10:00,81.9,76.3,29.96,WSW,249,2.0,8.0,83,0.00,,,0.00,WUHU216DAVISVP2,2013-07-09 20:10:00,
2013-07-09 16:27:00,81.8,76.9,29.96,WNW,284,0.0,4.0,85,0.00,,,0.00,WUHU216DAVISVP2,2013-07-09 20:27:00,
2013-07-09 16:32:00,81.8,76.9,29.96,WNW,287,0.0,2.0,85,0.00,,,0.00,WUHU216DAVISVP2,2013-07-09 20:32:00,
2013-07-09 16:37:00,81.7,76.7,29.96,NW,323,0.0,2.0,85,0.00,,,0.00,WUHU216DAVISVP2,2013-07-09 20:37:00,
2013-07-09 16:49:00,81.4,76.5,29.95,WNW,303,2.0,3.0,85,0.00,,,0.00,WUHU216DAVISVP2,2013-07-09 20:49:00,
2013-07-09 16:54:00,81.4,76.5,29.95,West,271,1.0,3.0,85,0.00,,,0.00,WUHU216DAVISVP2,2013-07-09 20:54:00,
2013-07-09 17:11:00,82.2,76.9,29.94,WSW,247,0.0,3.0,84,0.00,,,0.00,WUHU216DAVISVP2,2013-07-09 21:11:00,
2013-07-09 17:16:00,82.6,77.3,29.94,West,260,1.0,2.0,84,0.00,,,0.00,WUHU216DAVISVP2,2013-07-09 21:16:00,
2013-07-09 17:21:00,83.0,77.0,29.94,WSW,252,1.0,2.0,82,0.00,,,0.00,WUHU216DAVISVP2,2013-07-09 21:21:00,
2013-07-09 17:33:00,83.9,77.9,29.93,WSW,248,2.0,5.0,82,0.00,,,0.00,WUHU216DAVISVP2,2013-07-09 21:33:00,
2013-07-09 17:38:00,84.3,79.0,29.93,SSW,200,3.0,5.0,84,0.00,,,0.00,WUHU216DAVISVP2,2013-07-09 21:38:00,
2013-07-09 17:55:00,85.5,78.4,29.92,SW,222,4.0,8.0,79,0.00,,,0.00,WUHU216DAVISVP2,2013-07-09 21:55:00,
2013-07-09 18:00:00,85.4,78.7,29.92,WSW,240,5.0,10.0,80,0.00,,,0.00,WUHU216DAVISVP2,2013-07-09 22:00:00,
2013-07-09 18:17:00,85.3,78.2,29.92,SSW,198,8.0,12.0,79,0.00,,,0.00,WUHU216DAVISVP2,2013-07-09 22:17:00,
2013-07-09 18:22:00,85.4,78.3,29.91,SSW,199,4.0,11.0,79,0.00,,,0.00,WUHU216DAVISVP2,2013-07-09 22:22:00,
2013-07-09 18:38:00,84.5,77.4,29.91,SSW,213,4.0,11.0,79,0.00,,,0.00,WUHU216DAVISVP2,2013-07-09 22:38:00,
2013-07-09 18:43:00,84.1,77.4,29.91,SSW,212,3.0,11.0,80,0.00,,,0.00,WUHU216DAVISVP2,2013-07-09 22:43:00,
2013-07-09 19:00:00,83.1,76.7,29.90,SSW,194,6.0,10.0,81,0.00,,,0.00,WUHU216DAVISVP2,2013-07-09 23:00:00,
2013-07-09 19:05:00,82.8,76.7,29.90,SSW,212,5.0,10.0,82,0.00,,,0.00,WUHU216DAVISVP2,2013-07-09 23:05:00,
2013-07-09 19:10:00,82.7,76.6,29.90,SSW,207,3.0,10.0,82,0.00,,,0.00,WUHU216DAVISVP2,2013-07-09 23:10:00,
2013-07-09 19:22:00,82.3,76.7,29.89,South,169,5.0,8.0,83,0.00,,,0.00,WUHU216DAVISVP2,2013-07-09 23:22:00,
2013-07-09 19:27:00,82.1,76.8,29.89,SSW,204,2.0,8.0,84,0.00,,,0.00,WUHU216DAVISVP2,2013-07-09 23:27:00,
2013-07-09 19:32:00,82.1,76.8,29.89,SSW,203,4.0,7.0,84,0.00,,,0.00,WUHU216DAVISVP2,2013-07-09 23:32:00,
2013-07-09 19:44:00,81.9,76.9,29.89,SSW,201,3.0,6.0,85,0.00,,,0.00,WUHU216DAVISVP2,2013-07-09 23:44:00,
2013-07-09 19:49:00,81.9,77.3,29.89,SSW,193,5.0,8.0,86,0.00,,,0.00,WUHU216DAVISVP2,2013-07-09 23:49:00,
2013-07-09 19:54:00,81.9,77.3,29.89,South,190,2.0,8.0,86,0.00,,,0.00,WUHU216DAVISVP2,2013-07-09 23:54:00,
2013-07-09 20:06:00,81.6,77.0,29.89,South,187,6.0,8.0,86,0.00,,,0.00,WUHU216DAVISVP2,2013-07-10 00:06:00,
2013-07-09 20:11:00,81.5,77.3,29.89,SSW,204,3.0,6.0,87,0.00,,,0.00,WUHU216DAVISVP2,2013-07-10 00:11:00,
2013-07-09 20:16:00,81.4,77.2,29.89,South,188,4.0,6.0,87,0.00,,,0.00,WUHU216DAVISVP2,2013-07-10 00:16:00,
2013-07-09 20:28:00,81.1,77.2,29.89,South,190,3.0,7.0,88,0.00,,,0.00,WUHU216DAVISVP2,2013-07-10 00:28:00,
2013-07-09 20:33:00,81.0,77.1,29.90,SSW,201,1.0,7.0,88,0.00,,,0.00,WUHU216DAVISVP2,2013-07-10 00:33:00,
2013-07-09 20:50:00,80.9,77.0,29.90,SSW,212,2.0,6.0,88,0.00,,,0.00,WUHU216DAVISVP2,2013-07-10 00:50:00,
2013-07-09 20:55:00,80.9,77.0,29.90,SSW,210,6.0,7.0,88,0.00,,,0.00,WUHU216DAVISVP2,2013-07-10 00:55:00,
2013-07-09 21:00:00,80.9,77.0,29.90,SSW,212,1.0,7.0,88,0.00,,,0.00,WUHU216DAVISVP2,2013-07-10 01:00:00,
2013-07-09 21:12:00,80.8,77.3,29.89,South,188,1.0,7.0,89,0.00,,,0.00,WUHU216DAVISVP2,2013-07-10 01:12:00,
2013-07-09 21:17:00,80.7,77.2,29.89,SSW,212,4.0,6.0,89,0.00,,,0.00,WUHU216DAVISVP2,2013-07-10 01:17:00,
2013-07-09 21:34:00,80.3,76.8,29.89,SSW,204,2.0,8.0,89,0.00,,,0.00,WUHU216DAVISVP2,2013-07-10 01:34:00,
2013-07-09 21:39:00,80.2,76.7,29.89,SW,215,4.0,8.0,89,0.00,,,0.00,WUHU216DAVISVP2,2013-07-10 01:39:00,
2013-07-09 21:44:00,80.0,76.5,29.89,WSW,246,3.0,8.0,89,0.00,,,0.00,WUHU216DAVISVP2,2013-07-10 01:44:00,
2013-07-09 21:56:00,80.0,76.5,29.90,SSW,212,7.0,9.0,89,0.00,,,0.00,WUHU216DAVISVP2,2013-07-10 01:56:00,
2013-07-09 22:01:00,79.9,76.4,29.90,SSW,197,6.0,9.0,89,0.00,,,0.00,WUHU216DAVISVP2,2013-07-10 02:01:00,
2013-07-09 22:18:00,79.6,75.7,29.91,SSW,200,5.0,10.0,88,0.00,,,0.00,WUHU216DAVISVP2,2013-07-10 02:18:00,
2013-07-09 22:23:00,79.5,75.6,29.91,SSW,212,2.0,9.0,88,0.00,,,0.00,WUHU216DAVISVP2,2013-07-10 02:23:00,
2013-07-09 22:28:00,79.4,75.5,29.91,SW,228,5.0,9.0,88,0.00,,,0.00,WUHU216DAVISVP2,2013-07-10 02:28:00,
2013-07-09 22:39:00,79.2,75.4,29.91,SW,224,4.0,8.0,88,0.00,,,0.00,WUHU216DAVISVP2,2013-07-10 02:39:00,
2013-07-09 22:44:00,79.1,75.6,29.91,South,191,4.0,10.0,89,0.00,,,0.00,WUHU216DAVISVP2,2013-07-10 02:44:00,
2013-07-09 23:01:00,78.8,75.3,29.91,SSW,208,2.0,8.0,89,0.00,,,0.00,WUHU216DAVISVP2,2013-07-10 03:01:00,
2013-07-09 23:06:00,78.7,75.2,29.91,SW,228,3.0,7.0,89,0.00,,,0.00,WUHU216DAVISVP2,2013-07-10 03:06:00,
2013-07-09 23:23:00,78.3,75.1,29.91,SSW,210,3.0,8.0,90,0.00,,,0.00,WUHU216DAVISVP2,2013-07-10 03:23:00,
2013-07-09 23:28:00,78.2,75.0,29.91,SSW,210,4.0,8.0,90,0.00,,,0.00,WUHU216DAVISVP2,2013-07-10 03:28:00,
2013-07-09 23:45:00,78.1,75.2,29.91,SW,217,3.0,9.0,91,0.00,,,0.00,WUHU216DAVISVP2,2013-07-10 03:45:00,
2013-07-09 23:50:00,78.1,75.2,29.90,SSW,212,4.0,9.0,91,0.00,,,0.00,WUHU216DAVISVP2,2013-07-10 03:50:00,
2013-07-09 23:55:00,78.0,75.1,29.90,SSW,197,1.0,8.0,91,0.00,,,0.00,WUHU216DAVISVP2,2013-07-10 03:55:00,